Year,Month,Day,Hour,Minute,Value (Times are PST for temperature in C)
2015,06,22,20,11,21.40
2015,06,22,20,12,21.40
2015,06,22,20,13,21.40
2015,06,22,20,14,21.40
2015,06,22,20,15,21.40
2015,06,22,20,16,21.40
2015,06,22,20,17,21.40
2015,06,22,20,18,21.50
2015,06,22,20,19,21.50
2015,06,22,20,20,21.50
2015,06,22,20,21,21.50
2015,06,22,20,22,21.50
2015,06,22,20,23,21.50
2015,06,22,20,24,21.50
2015,06,22,20,25,21.50
2015,06,22,20,26,21.40
2015,06,22,20,27,21.40
2015,06,22,20,28,21.30
2015,06,22,20,29,21.30
2015,06,22,20,30,21.30
2015,06,22,20,31,21.30
2015,06,22,20,32,21.20
2015,06,22,20,33,21.20
2015,06,22,20,34,21.20
2015,06,22,20,35,21.20
2015,06,22,20,36,21.20
2015,06,22,20,37,21.20
2015,06,22,20,38,21.20
2015,06,22,20,39,21.20
2015,06,22,20,40,21.20
2015,06,22,20,41,21.20
2015,06,22,20,42,21.20
2015,06,22,20,43,21.20
2015,06,22,20,44,21.20
2015,06,22,20,45,21.20
2015,06,22,20,46,21.20
2015,06,22,20,47,21.20
2015,06,22,20,48,21.20
2015,06,22,20,49,21.20
2015,06,22,20,50,21.20
2015,06,22,20,51,21.20
2015,06,22,20,52,21.20
2015,06,22,20,53,21.20
2015,06,22,20,54,21.20
2015,06,22,20,55,21.20
2015,06,22,20,56,21.30
2015,06,22,20,57,21.30
2015,06,22,20,58,21.30
2015,06,22,20,59,21.20
2015,06,22,21,00,21.20
2015,06,22,21,01,21.20
2015,06,22,21,02,21.20
2015,06,22,21,03,21.20
2015,06,22,21,04,21.20
2015,06,22,21,05,21.20
2015,06,22,21,06,21.10
2015,06,22,21,07,21.10
2015,06,22,21,08,21.10
2015,06,22,21,09,21.00
2015,06,22,21,10,21.00
2015,06,22,21,11,20.90
2015,06,22,21,12,20.90
2015,06,22,21,13,20.80
2015,06,22,21,14,20.80
2015,06,22,21,15,20.80
2015,06,22,21,16,20.80
2015,06,22,21,17,20.70
2015,06,22,21,18,20.70
2015,06,22,21,19,20.70
2015,06,22,21,20,20.60
2015,06,22,21,21,20.60
2015,06,22,21,22,20.50
2015,06,22,21,23,20.50
2015,06,22,21,24,20.40
2015,06,22,21,25,20.30
2015,06,22,21,26,20.30
2015,06,22,21,27,20.30
2015,06,22,21,28,20.20
2015,06,22,21,29,20.20
2015,06,22,21,30,20.20
2015,06,22,21,31,20.10
2015,06,22,21,32,20.10
2015,06,22,21,33,20.10
2015,06,22,21,34,20.00
2015,06,22,21,35,20.00
2015,06,22,21,36,19.90
2015,06,22,21,37,19.90
2015,06,22,21,38,19.80
2015,06,22,21,39,19.80
2015,06,22,21,40,19.80
2015,06,22,21,41,19.70
2015,06,22,21,42,19.70
2015,06,22,21,43,19.70
2015,06,22,21,44,19.70
2015,06,22,21,45,19.60
2015,06,22,21,46,19.60
2015,06,22,21,47,19.50
2015,06,22,21,48,19.50
2015,06,22,21,49,19.50
2015,06,22,21,50,19.40
2015,06,22,21,51,19.40
2015,06,22,21,52,19.30
2015,06,22,21,53,19.30
2015,06,22,21,54,19.20
2015,06,22,21,55,19.20
2015,06,22,21,56,19.10
2015,06,22,21,57,19.10
2015,06,22,21,58,19.10
2015,06,22,21,59,19.00
2015,06,22,22,00,18.90
2015,06,22,22,01,18.80
2015,06,22,22,02,18.80
2015,06,22,22,03,18.70
2015,06,22,22,04,18.70
2015,06,22,22,05,18.60
2015,06,22,22,06,18.60
2015,06,22,22,07,18.50
2015,06,22,22,08,18.40
2015,06,22,22,09,18.30
2015,06,22,22,10,18.30
2015,06,22,22,11,18.20
2015,06,22,22,12,18.20
2015,06,22,22,13,18.10
2015,06,22,22,14,18.10
2015,06,22,22,15,18.00
2015,06,22,22,16,18.00
2015,06,22,22,17,17.90
2015,06,22,22,18,17.90
2015,06,22,22,19,17.90
2015,06,22,22,20,17.80
2015,06,22,22,21,17.80
2015,06,22,22,22,17.80
2015,06,22,22,23,17.70
2015,06,22,22,24,17.70
2015,06,22,22,25,17.70
2015,06,22,22,26,17.60
2015,06,22,22,27,17.60
2015,06,22,22,28,17.60
2015,06,22,22,29,17.50
2015,06,22,22,30,17.50
2015,06,22,22,31,17.40
2015,06,22,22,32,17.40
2015,06,22,22,33,17.40
2015,06,22,22,34,17.30
2015,06,22,22,35,17.30
2015,06,22,22,36,17.30
2015,06,22,22,37,17.30
2015,06,22,22,38,17.30
2015,06,22,22,39,17.30
2015,06,22,22,40,17.30
2015,06,22,22,41,17.30
2015,06,22,22,42,17.30
2015,06,22,22,43,17.30
